CAPE
1625 1977 2263 2367 2366 2442 2551 2383 1210 5 138 1272 2867 3022 2450 2623 2243 2329 2331 2217 1704 1341
1066 1241 1163 1457 2053 1955 1971 2014 1214 785 290 22 296 2220 2156 2297 2575 2302 2255 1971 2505 1539
661 659 827 910 948 1018 1031 1162 938 980 743 78 0 1218 1938 2290 2756 2558 1809 1352 1965 1524
117 341 576 669 594 550 616 774 658 535 727 846 194 660 1627 2006 2281 2152 2098 1378 1753 1510
10 20 181 250 317 335 276 360 482 336 298 361 971 1019 954 1528 1864 2111 1683 1851 1335 1557
17 22 14 2 189 108 15 17 53 207 151 321 360 324 102 561 1396 1722 1657 1777 1123 1559
20 16 19 35 38 10 1 0 0 3 21 176 102 264 396 334 3 453 823 1567 1708 1331
12 14 4 19 52 42 39 5 0 0 2 0 101 36 263 413 271 82 50 565 1450 1302
18 14 20 31 27 45 66 65 28 0 0 7 7 15 1 337 370 263 499 240 28 414
26 36 55 40 31 29 49 58 55 48 6 0 17 9 0 0 17 86 282 439 371 111
35 48 30 20 49 101 98 77 40 10 2 1 0 4 7 3 0 3 65 214 381 372
9 5 5 2 8 9 14 62 63 32 13 5 3 0 2 18 35 51 123 112 224 357
0 0 7 15 10 3 2 10 7 30 30 18 18 11 8 6 53 50 41 200 351 334
0 0 0 0 0 0 0 8 17 0 8 13 3 2 3 0 17 97 89 61 182 258
CIN
-79 -34 -24 -33 -29 -35 -33 -42 -13 -212 -293 -1 -1 -8 -45 -17 -20 -14 -14 -28 -47 -68
-99 -91 -129 -74 -27 -45 -38 -13 -2 -4 -16 -103 -49 -2 -40 -17 -19 -19 -26 -41 -31 -68
-88 -104 -100 -122 -129 -123 -105 -58 -53 -15 -35 -141 0 -8 -16 -13 -13 -16 -44 -61 -49 -81
-148 -100 -80 -88 -151 -197 -170 -101 -90 -13 -30 -4 -2 -2 -6 -9 -12 -22 -28 -69 -53 -78
-7 -194 -130 -121 -155 -223 -225 -166 -87 -92 -120 -70 -3 -12 -43 -6 -3 -21 -31 -27 -66 -75
-4 -3 -5 -2 -135 -199 -241 -225 -202 -92 -133 -65 -35 -3 -17 -228 -5 -1 -36 -29 -77 -53
-4 -7 -6 -9 -8 -8 -2 0 0 -2 -122 -116 -70 -10 -1 -6 -166 -28 -8 -28 -30 -31
-5 -4 -5 -11 -5 -8 -7 -5 0 0 -2 0 -45 -50 -10 0 0 -43 -64 -3 -142 -8
-3 -3 -7 -10 -10 -9 -7 -7 -6 0 0 -4 -1 0 -1 0 0 0 0 -11 -15 -3
-3 -3 -6 -9 -10 -12 -14 -13 -6 -4 -5 0 -7 -3 0 0 -27 -6 -1 -3 -1 -45
-1 -9 -45 -58 -23 -15 -15 -12 -19 -26 -19 -2 0 -1 -1 -21 0 -2 -14 -10 -3 -1
-15 -27 -15 -40 -19 -49 -9 -15 -8 -8 -15 -18 -24 0 -3 -4 -29 -4 -2 -23 -12 -2
0 0 0 0 -1 -22 -38 -11 -14 -3 -8 -5 -9 -7 -5 -1 -33 -11 -5 -6 -9 -7
0 0 0 0 0 0 0 0 -3 0 -10 -24 -14 -11 -13 0 -42 -7 -3 -3 -9 -13
Wind_Speed
55 53 50 50 46 42 40 39 58 nan 47 60 34 27 25 34 36 36 37 35 31 27
54 54 54 53 50 48 49 49 61 65 61 nan 15 22 24 28 29 35 39 37 37 32
52 53 54 53 50 47 46 49 56 53 55 nan nan 17 30 22 26 27 31 33 36 34
57 58 58 57 54 50 49 52 54 61 52 47 53 14 20 25 21 26 30 32 36 34
nan nan 58 56 57 53 51 52 57 61 56 55 50 57 63 49 29 31 33 38 36 35
nan nan nan nan 56 53 nan nan nan 57 57 56 53 58 46 22 33 34 37 36 36 38
nan nan nan nan nan nan nan nan nan nan nan 56 59 63 60 63 nan 26 41 39 34 40
nan nan nan nan nan nan nan nan nan nan nan nan 62 nan 70 64 60 nan nan 51 52 45
nan nan nan nan nan nan nan nan nan nan nan nan nan nan nan 68 67 68 61 55 nan 42
nan nan nan nan nan nan nan nan nan nan nan nan nan nan nan nan nan nan 70 67 63 58
nan nan nan nan nan 58 nan nan nan nan nan nan nan nan nan nan nan nan nan 74 78 72
nan nan nan nan nan nan nan nan nan nan nan nan nan nan nan nan nan nan 75 76 76 77
nan nan nan nan nan nan nan nan nan nan nan nan nan nan nan nan nan nan nan 79 79 75
nan nan nan nan nan nan nan nan nan nan nan nan nan nan nan nan nan nan nan nan 82 78
Wind_Direction
251 253 253 254 257 263 270 268 264 nan 240 224 229 244 269 280 286 291 290 290 288 282
253 254 256 254 255 255 257 263 277 283 287 nan 242 274 259 276 288 293 294 293 288 280
257 256 256 255 254 254 253 255 259 268 291 nan nan 307 256 275 281 285 289 290 291 286
254 253 254 256 254 251 251 256 257 263 267 284 300 213 271 276 270 290 285 289 289 284
nan nan 252 255 254 249 247 249 254 258 262 268 282 290 291 271 274 278 287 278 271 282
nan nan nan nan 252 253 nan nan nan 252 256 257 258 264 279 226 243 248 263 267 278 278
nan nan nan nan nan nan nan nan nan nan nan 253 258 261 263 266 nan 228 234 282 267 267
nan nan nan nan nan nan nan nan nan nan nan nan 255 nan 264 267 270 nan nan 221 245 255
nan nan nan nan nan nan nan nan nan nan nan nan nan nan nan 267 269 273 270 276 nan 288
nan nan nan nan nan nan nan nan nan nan nan nan nan nan nan nan nan nan 264 266 275 273
nan nan nan nan nan 258 nan nan nan nan nan nan nan nan nan nan nan nan nan 260 269 269
nan nan nan nan nan nan nan nan nan nan nan nan nan nan nan nan nan nan 255 257 260 269
nan nan nan nan nan nan nan nan nan nan nan nan nan nan nan nan nan nan nan 254 256 259
nan nan nan nan nan nan nan nan nan nan nan nan nan nan nan nan nan nan nan nan 252 254